Visibility
15.0 15.0 15.0 15.0 15.0 15.0 15.0 15.0 15.0 15.0 15.0 15.0 15.0 15.0 15.0 15.0 15.0 15.0 15.0 15.0 13.7 15.0
15.0 15.0 15.0 15.0 15.0 15.0 15.0 15.0 15.0 15.0 15.0 15.0 15.0 15.0 15.0 15.0 15.0 15.0 15.0 15.0 15.0 12.5
15.0 15.0 15.0 15.0 14.6 15.0 15.0 15.0 15.0 15.0 15.0 15.0 15.0 15.0 15.0 15.0 15.0 15.0 15.0 15.0 15.0 13.8
15.0 15.0 15.0 15.0 15.0 15.0 15.0 15.0 15.0 15.0 15.0 15.0 15.0 15.0 15.0 15.0 15.0 14.1 14.1 14.0 13.9 14.9
15.0 15.0 15.0 15.0 15.0 15.0 15.0 14.2 14.8 15.0 15.0 15.0 15.0 15.0 15.0 15.0 15.0 15.0 14.7 15.0 14.6 14.0
15.0 15.0 15.0 15.0 15.0 15.0 8.9 11.9 15.0 15.0 15.0 15.0 15.0 15.0 15.0 15.0 15.0 15.0 15.0 15.0 15.0 15.0
15.0 15.0 15.0 15.0 15.0 15.0 14.8 8.3 8.8 15.0 15.0 15.0 15.0 15.0 15.0 15.0 15.0 15.0 15.0 15.0 14.0 13.1
15.0 15.0 15.0 15.0 15.0 15.0 15.0 15.0 15.0 15.0 14.6 9.2 15.0 15.0 15.0 15.0 15.0 15.0 15.0 15.0 15.0 10.6
15.0 15.0 15.0 15.0 15.0 15.0 0.6 11.8 15.0 14.8 15.0 15.0 15.0 15.0 15.0 15.0 15.0 15.0 15.0 15.0 15.0 15.0
10.7 15.0 15.0 15.0 15.0 1.1 0.3 14.8 15.0 15.0 15.0 15.0 15.0 15.0 15.0 15.0 14.6 0.3 13.8 15.0 14.9 10.7
9.5 15.0 15.0 15.0 11.6 5.1 6.6 12.3 15.0 15.0 15.0 15.0 15.0 15.0 15.0 15.0 13.8 5.7 6.5 15.0 15.0 7.8
15.0 15.0 15.0 15.0 7.6 4.1 4.7 11.6 15.0 15.0 15.0 15.0 15.0 15.0 15.0 15.0 15.0 0.3 0.1 3.6 12.1 10.3
0.0 0.0 15.0 6.2 4.0 4.6 6.0 6.2 7.5 1.3 14.6 15.0 0.2 14.2 15.0 15.0 15.0 0.2 0.1 0.2 3.4 14.4
0.1 0.0 11.2 4.4 4.1 4.6 7.4 6.7 6.4 13.1 15.0 15.0 4.8 0.5 15.0 13.4 15.0 11.1 1.0 0.2 0.1 0.3